TimeCDT,TemperatureF,Dew PointF,Humidity,Sea Level PressureIn,VisibilityMPH,Wind Direction,Wind SpeedMPH,Gust SpeedMPH,PrecipitationIn,Events,Conditions,WindDirDegrees,DateUTC
12:53 AM,70.0,57.9,65,29.73,10.0,SSE,10.4,-,N/A,,Clear,150,2012-10-21 05:53:00
1:53 AM,69.1,57.0,65,29.72,10.0,SSE,11.5,-,N/A,,Clear,150,2012-10-21 06:53:00
2:53 AM,68.0,57.0,68,29.73,10.0,SE,10.4,-,N/A,,Clear,140,2012-10-21 07:53:00
3:53 AM,68.0,57.9,70,29.72,10.0,SSE,10.4,-,N/A,,Clear,150,2012-10-21 08:53:00
4:53 AM,66.9,59.0,76,29.72,10.0,SSE,8.1,-,N/A,,Clear,160,2012-10-21 09:53:00
5:53 AM,66.9,60.1,79,29.73,10.0,SSE,10.4,-,N/A,,Clear,160,2012-10-21 10:53:00
6:53 AM,66.0,62.1,87,29.74,10.0,SSE,9.2,-,N/A,,Clear,150,2012-10-21 11:53:00
7:53 AM,66.9,63.0,87,29.75,10.0,SSE,9.2,-,N/A,,Partly Cloudy,160,2012-10-21 12:53:00
8:31 AM,68.0,64.4,88,29.77,9.0,SSE,12.7,-,N/A,,Mostly Cloudy,160,2012-10-21 13:31:00
8:45 AM,69.8,64.4,83,29.77,9.0,SSE,12.7,-,N/A,,Scattered Clouds,160,2012-10-21 13:45:00
8:53 AM,70.0,64.9,84,29.76,9.0,SSE,13.8,-,N/A,,Scattered Clouds,160,2012-10-21 13:53:00
9:06 AM,69.8,66.2,88,29.78,9.0,SSE,15.0,-,N/A,,Mostly Cloudy,160,2012-10-21 14:06:00
9:53 AM,73.9,66.9,79,29.77,10.0,South,19.6,26.5,N/A,,Overcast,170,2012-10-21 14:53:00
10:53 AM,77.0,68.0,74,29.77,10.0,South,24.2,27.6,N/A,,Overcast,170,2012-10-21 15:53:00
11:53 AM,80.1,69.1,69,29.77,10.0,South,21.9,26.5,N/A,,Mostly Cloudy,170,2012-10-21 16:53:00
12:53 PM,80.1,68.0,67,29.76,10.0,South,15.0,-,N/A,,Overcast,180,2012-10-21 17:53:00
1:53 PM,82.0,68.0,62,29.73,10.0,South,21.9,32.2,N/A,,Mostly Cloudy,180,2012-10-21 18:53:00
2:53 PM,84.0,68.0,58,29.71,10.0,South,19.6,28.8,N/A,,Mostly Cloudy,170,2012-10-21 19:53:00
3:53 PM,84.9,68.0,57,29.70,10.0,South,20.7,31.1,N/A,,Scattered Clouds,170,2012-10-21 20:53:00
4:53 PM,84.9,69.1,59,29.69,10.0,SSE,15.0,24.2,N/A,,Partly Cloudy,160,2012-10-21 21:53:00
5:53 PM,84.0,68.0,58,29.70,10.0,South,18.4,31.1,N/A,,Partly Cloudy,180,2012-10-21 22:53:00
6:53 PM,82.9,66.9,58,29.71,10.0,South,15.0,25.3,N/A,,Partly Cloudy,170,2012-10-21 23:53:00
7:53 PM,81.0,68.0,65,29.74,10.0,South,16.1,-,N/A,,Partly Cloudy,170,2012-10-22 00:53:00
8:53 PM,80.1,66.9,64,29.75,10.0,South,19.6,25.3,N/A,,Partly Cloudy,170,2012-10-22 01:53:00
9:53 PM,78.1,66.9,68,29.76,10.0,South,19.6,29.9,N/A,,Clear,170,2012-10-22 02:53:00
10:53 PM,78.1,66.9,68,29.76,10.0,South,20.7,28.8,N/A,,Clear,170,2012-10-22 03:53:00
11:53 PM,77.0,66.9,71,29.76,10.0,South,20.7,33.4,N/A,,Clear,170,2012-10-22 04:53:00